Weather History for CYIO - March, 2014

Change the Weather History Date:

Sunday, March 30, 2014

  Actual Average Record
Temperature  
Mean Temperature -18 °F -  
Max Temperature -9 °F -9 °F 14 °F (2006)
Min Temperature -26 °F -20 °F -31 °F (1997)
Degree Days  
Heating Degree Days 82    
Moisture  
Dew Point -26 °F    
Average Humidity 62    
Maximum Humidity 76    
Minimum Humidity 46    
Precipitation  
Precipitation 0.00 in - - ()
Sea Level Pressure  
Sea Level Pressure 30.17 in    
Wind  
Wind Speed 4 mph ()    
Max Wind Speed 9 mph    
Max Gust Speed -    
Visibility 9.2 miles    
Events      
Averages and records for this station are not official NWS values.
T = Trace of Precipitation, MM = Missing Value Source: Averaged Metar Reports

Daily Weather History Graph

Daily Weather History Graph

Search for Another Location

Airport or City:

Trip Planner

Search our weather history database for the weather conditions in past years. The results will help you decide how hot, cold, wet, or windy it might be!

Date:

Astronomy

Mar. 30, 2014 Rise Set
Actual Time 6:15 AM EDT 8:20 PM EDT
Civil Twilight 4:58 AM EDT 9:38 PM EDT
Nautical Twilight 2:53 AM EDT 11:50 PM EDT
Astronomical Twilight Sun does not set Sun does not set
Moon 6:06 AM EDT (3/30) 8:51 PM EDT (3/30)
Length of Visible Light 16h 39m
Length of Day
14h 04m
Waning Crescent, 0% of the Moon is Illuminated
Mar 30
Waning Crescent
Mar 30
New
Apr 7
First Quarter
Apr 15
Full
Apr 22
Last Quarter

Hourly Weather History & Observations

Time (EDT) Temp. Windchill Dew Point Humidity Pressure Visibility Wind Dir Wind Speed Gust Speed Precip Events Conditions
12:00 AM -20.2 °F -38.8 °F -27.4 °F 69% 30.19 in 9.0 mi South 8.1 mph - N/A   Clear
1:00 AM -20.2 °F -37.3 °F -29.2 °F 63% 30.18 in 9.0 mi SSW 6.9 mph - N/A   Clear
2:00 AM -20 °F - -29 °F 47% 30.17 in 10 mi SSW 5.8 mph - -  
2:00 AM -20.2 °F -35.5 °F -29.2 °F 63% 30.17 in 9.0 mi SSW 5.8 mph - N/A   Clear
3:00 AM -22.0 °F -39.4 °F -31.0 °F 63% 30.17 in 9.0 mi South 6.9 mph - N/A   Clear
4:00 AM -20.2 °F -30.9 °F -29.2 °F 63% 30.17 in 9.0 mi South 3.5 mph - N/A   Clear
5:00 AM -19 °F - -28 °F 46% 30.17 in 10 mi East 4.6 mph - -  
5:00 AM -20.2 °F -30.9 °F -27.4 °F 69% 30.17 in 9.0 mi East 3.5 mph - N/A   Clear
6:00 AM -18.4 °F -28.9 °F -27.4 °F 63% 30.17 in 9.0 mi ENE 3.5 mph - N/A   Clear
7:00 AM -23.8 °F - -29.2 °F 76% 30.17 in 9.0 mi NNE 2.3 mph - N/A   Clear
8:00 AM -25 °F - -33 °F 50% 30.18 in 10 mi South 5.8 mph - -  
8:00 AM -23.8 °F -41.6 °F -32.8 °F 63% 30.18 in 9.0 mi South 6.9 mph - N/A   Clear
9:00 AM -20.2 °F -35.5 °F -29.2 °F 63% 30.17 in 9.0 mi SSW 5.8 mph - N/A   Clear
10:00 AM -20.2 °F - -27.4 °F 69% 30.17 in 9.0 mi Variable 2.3 mph - N/A   Clear
11:00 AM -19 °F - -27 °F 52% 30.17 in 10 mi NW 1.2 mph - -  
11:00 AM -18.4 °F - -27.4 °F 63% 30.16 in 9.0 mi Calm Calm - N/A   Clear
12:00 PM -16.6 °F -26.8 °F -25.6 °F 64% 30.16 in 9.0 mi SW 3.5 mph - N/A   Clear
1:00 PM -14.8 °F - -25.6 °F 58% 30.16 in 9.0 mi Calm Calm - N/A   Scattered Clouds
2:00 PM -16 °F - -23 °F 56% 30.15 in 10 mi NNE 3.5 mph - -   Overcast
2:00 PM -14.8 °F - -22.0 °F 70% 30.15 in 9.0 mi NNE 2.3 mph - N/A   Overcast
3:00 PM -14.8 °F -27.2 °F -22.0 °F 70% 30.16 in 9.0 mi South 4.6 mph - N/A   Overcast
4:00 PM -14.8 °F -29.1 °F -22.0 °F 70% 30.16 in 9.0 mi SSE 5.8 mph - N/A   Clear
5:00 PM -14 °F - -23 °F 48% 30.17 in 10 mi SSW 5.8 mph - -  
5:00 PM -13.0 °F -27.0 °F -23.8 °F 59% 30.17 in 9.0 mi SSW 5.8 mph - N/A   Clear
6:00 PM -14.8 °F -33.5 °F -23.8 °F 64% 30.18 in 9.0 mi SSE 9.2 mph - N/A   Clear
7:00 PM -9.4 °F -20.9 °F -22.0 °F 54% 30.18 in 9.0 mi South 4.6 mph - N/A   Clear
8:00 PM -13 °F - -21 °F 51% 30.19 in 10 mi SSE 2.3 mph - -  
8:00 PM -13.0 °F - -22.0 °F 64% 30.18 in 9.0 mi Calm Calm - N/A   Clear
9:00 PM -13.0 °F -25.1 °F -20.2 °F 70% 30.19 in 9.0 mi SSE 4.6 mph - N/A   Partly Cloudy
10:00 PM -14.8 °F -27.2 °F -22.0 °F 70% 30.19 in 9.0 mi SSE 4.6 mph - N/A   Scattered Clouds
11:00 PM -14 °F - -23 °F 49% 30.19 in 10 mi SSE 5.8 mph - -  
11:00 PM -14.8 °F -29.1 °F -22.0 °F 70% 30.19 in 9.0 mi SSE 5.8 mph - N/A   Clear